AEE218 LGAV-LGTS

Flight info

Callsign AEE218
Flight time 0h 39m
Altitude 24000
Route KRO G33 NEVRA T514 OSMOS
Aircraft A320/M-SDE3FGHIRWY/LB1

Departure

Time 2026-05-05 10:55
Airport Athens Eleftherios Venizelos International Airport (LGAV)

Arrival

Time 2026-05-05 11:34
Airport Thessaloniki Macedonia International Airport (LGTS)
Time Latitude Longitude Altitude Speed Heading
2026-05-05 10:30 37.93372 23.94614 300 ft 0 kts 306°
2026-05-05 10:47 37.93362 23.94633 302 ft 4 kts 303°
2026-05-05 10:47 37.93348 23.94662 302 ft 4 kts 295°
2026-05-05 10:47 37.93339 23.94693 303 ft 4 kts 269°
2026-05-05 10:48 37.93344 23.94715 301 ft 1 kts 217°
2026-05-05 10:51 37.93296 23.94669 305 ft 13 kts 217°
2026-05-05 10:51 37.93215 23.94598 301 ft 15 kts 201°
2026-05-05 10:51 37.93109 23.94599 303 ft 16 kts 154°
2026-05-05 10:51 37.93032 23.94675 302 ft 13 kts 175°
2026-05-05 10:52 37.92941 23.94611 301 ft 19 kts 217°
2026-05-05 10:52 37.92829 23.94505 303 ft 21 kts 216°
2026-05-05 10:52 37.92707 23.94392 305 ft 23 kts 216°
2026-05-05 10:52 37.92604 23.94294 304 ft 10 kts 218°
2026-05-05 10:53 37.92548 23.94298 304 ft 9 kts 135°
2026-05-05 10:53 37.92514 23.94361 307 ft 8 kts 120°
2026-05-05 10:53 37.92486 23.94423 309 ft 8 kts 113°
2026-05-05 10:53 37.92510 23.94476 308 ft 2 kts 38°
2026-05-05 10:54 37.92534 23.94500 307 ft 8 kts 37°
2026-05-05 10:54 37.92736 23.94695 301 ft 72 kts 37°
2026-05-05 10:54 37.93303 23.95235 293 ft 128 kts 37°
2026-05-05 10:54 37.94132 23.96025 385 ft 161 kts 39°
2026-05-05 10:55 37.95004 23.96794 1153 ft 152 kts 36°
2026-05-05 10:55 37.95856 23.97587 1778 ft 152 kts 35°
2026-05-05 10:55 37.96719 23.98426 2216 ft 165 kts 36°
2026-05-05 10:55 37.97691 23.99370 2459 ft 187 kts 35°
2026-05-05 10:56 37.98790 24.00434 2729 ft 212 kts 35°
2026-05-05 10:56 38.00030 24.01630 3123 ft 236 kts 34°
2026-05-05 10:56 38.01364 24.02916 3824 ft 245 kts 35°
2026-05-05 10:56 38.02726 24.04235 4673 ft 248 kts 35°
2026-05-05 10:57 38.04107 24.05574 5552 ft 251 kts 35°
2026-05-05 10:57 38.05502 24.06923 6444 ft 253 kts 35°
2026-05-05 10:57 38.06902 24.08273 7355 ft 252 kts 34°
2026-05-05 10:57 38.08151 24.09809 8228 ft 257 kts 51°
2026-05-05 10:58 38.08938 24.11864 9088 ft 264 kts 72°
2026-05-05 10:58 38.09022 24.14275 9646 ft 286 kts 98°
2026-05-05 10:58 38.08410 24.16719 10336 ft 295 kts 106°
2026-05-05 10:58 38.07706 24.19271 10601 ft 317 kts 106°
2026-05-05 10:59 38.06954 24.22012 10784 ft 340 kts 106°
2026-05-05 10:59 38.06344 24.24963 11148 ft 349 kts 92°
2026-05-05 10:59 38.06504 24.28025 11709 ft 349 kts 72°
2026-05-05 10:59 38.07484 24.30812 12323 ft 347 kts 52°
2026-05-05 11:00 38.09170 24.32982 12941 ft 347 kts 32°
2026-05-05 11:00 38.11271 24.34407 13557 ft 349 kts 23°
2026-05-05 11:00 38.13473 24.35747 14163 ft 353 kts 23°
2026-05-05 11:00 38.15697 24.37102 14743 ft 357 kts 23°
2026-05-05 11:01 38.17951 24.38476 15319 ft 361 kts 23°
2026-05-05 11:01 38.20222 24.39863 15878 ft 364 kts 22°
2026-05-05 11:01 38.22518 24.41270 16411 ft 368 kts 22°
2026-05-05 11:01 38.24832 24.42691 16953 ft 371 kts 22°
2026-05-05 11:02 38.27171 24.44130 17523 ft 375 kts 22°
2026-05-05 11:02 38.29527 24.45583 18089 ft 378 kts 21°
2026-05-05 11:02 38.31906 24.47049 18616 ft 381 kts 21°
2026-05-05 11:02 38.34302 24.48529 19115 ft 384 kts 21°
2026-05-05 11:03 38.36713 24.50020 19637 ft 386 kts 21°
2026-05-05 11:03 38.39106 24.51502 20160 ft 389 kts 21°
2026-05-05 11:03 38.41604 24.52795 20671 ft 387 kts 12°
2026-05-05 11:03 38.44226 24.53479 21158 ft 384 kts
2026-05-05 11:04 38.46884 24.53526 21635 ft 382 kts 353°
2026-05-05 11:04 38.49546 24.53265 22112 ft 384 kts 353°
2026-05-05 11:04 38.52219 24.53015 22584 ft 386 kts 353°
2026-05-05 11:04 38.54905 24.52772 23047 ft 388 kts 353°
2026-05-05 11:05 38.57609 24.52534 23512 ft 391 kts 353°
2026-05-05 11:05 38.60331 24.52296 23915 ft 393 kts 353°
2026-05-05 11:05 38.63065 24.52061 24060 ft 393 kts 353°
2026-05-05 11:05 38.65826 24.51835 24097 ft 402 kts 354°
2026-05-05 11:06 38.68634 24.51610 24108 ft 405 kts 354°
2026-05-05 11:06 38.71453 24.51386 24097 ft 406 kts 354°
2026-05-05 11:06 38.74271 24.51160 24098 ft 406 kts 354°
2026-05-05 11:06 38.77094 24.50927 24096 ft 406 kts 354°
2026-05-05 11:07 38.79917 24.50696 24096 ft 406 kts 354°
2026-05-05 11:07 38.82739 24.50464 24092 ft 406 kts 353°
2026-05-05 11:07 38.85560 24.50235 24087 ft 406 kts 354°
2026-05-05 11:07 38.88376 24.50007 24090 ft 406 kts 354°
2026-05-05 11:08 38.91197 24.49779 24095 ft 406 kts 354°
2026-05-05 11:08 38.93948 24.49293 24098 ft 404 kts 345°
2026-05-05 11:08 38.96590 24.48130 24096 ft 402 kts 334°
2026-05-05 11:08 38.99002 24.46326 24095 ft 401 kts 324°
2026-05-05 11:09 39.01102 24.43966 24091 ft 402 kts 314°
2026-05-05 11:09 39.02910 24.41229 24091 ft 402 kts 311°
2026-05-05 11:09 39.04699 24.38463 24076 ft 402 kts 311°
2026-05-05 11:09 39.06492 24.35698 24081 ft 402 kts 311°
2026-05-05 11:10 39.08284 24.32933 24082 ft 402 kts 311°
2026-05-05 11:10 39.10075 24.30164 24083 ft 402 kts 311°
2026-05-05 11:10 39.11861 24.27399 24087 ft 402 kts 311°
2026-05-05 11:10 39.13652 24.24628 24081 ft 402 kts 311°
2026-05-05 11:11 39.15437 24.21860 24088 ft 402 kts 311°
2026-05-05 11:11 39.17224 24.19087 24085 ft 402 kts 311°
2026-05-05 11:11 39.19008 24.16314 24092 ft 402 kts 311°
2026-05-05 11:11 39.20798 24.13529 24090 ft 402 kts 311°
2026-05-05 11:12 39.22583 24.10750 24097 ft 402 kts 311°
2026-05-05 11:12 39.24366 24.07973 24092 ft 402 kts 311°
2026-05-05 11:12 39.26149 24.05188 24086 ft 402 kts 311°
2026-05-05 11:12 39.27906 24.02438 24086 ft 402 kts 311°
2026-05-05 11:13 39.29767 23.99758 24083 ft 400 kts 318°
2026-05-05 11:13 39.31932 23.97525 24092 ft 398 kts 327°
2026-05-05 11:13 39.34249 23.95577 24094 ft 398 kts 328°
2026-05-05 11:13 39.36562 23.93627 24088 ft 397 kts 327°
2026-05-05 11:14 39.38875 23.91669 24088 ft 397 kts 327°
2026-05-05 11:14 39.41186 23.89704 24086 ft 397 kts 327°
2026-05-05 11:14 39.43491 23.87737 24084 ft 397 kts 327°
2026-05-05 11:14 39.45797 23.85770 24088 ft 397 kts 327°
2026-05-05 11:15 39.48102 23.83801 24088 ft 397 kts 327°
2026-05-05 11:15 39.50405 23.81831 24084 ft 397 kts 327°
2026-05-05 11:15 39.52720 23.79854 24082 ft 397 kts 327°
2026-05-05 11:15 39.55025 23.77887 24074 ft 397 kts 327°
2026-05-05 11:16 39.57331 23.75919 24076 ft 397 kts 327°
2026-05-05 11:16 39.59638 23.73947 24059 ft 397 kts 327°
2026-05-05 11:16 39.61943 23.71974 24058 ft 397 kts 327°
2026-05-05 11:16 39.64246 23.70002 24064 ft 397 kts 327°
2026-05-05 11:17 39.66543 23.68034 23990 ft 392 kts 327°
2026-05-05 11:17 39.68789 23.66108 23761 ft 384 kts 327°
2026-05-05 11:17 39.71001 23.64205 23478 ft 379 kts 327°
2026-05-05 11:17 39.73151 23.62353 22961 ft 372 kts 327°
2026-05-05 11:18 39.75293 23.60506 22447 ft 368 kts 327°
2026-05-05 11:18 39.77415 23.58679 21958 ft 363 kts 328°
2026-05-05 11:18 39.79516 23.56873 21469 ft 360 kts 328°
2026-05-05 11:18 39.81590 23.55088 21004 ft 356 kts 328°
2026-05-05 11:19 39.83646 23.53317 20549 ft 352 kts 328°
2026-05-05 11:19 39.85674 23.51566 20101 ft 348 kts 328°
2026-05-05 11:19 39.87687 23.49826 19669 ft 346 kts 328°
2026-05-05 11:19 39.89692 23.48091 19233 ft 345 kts 328°
2026-05-05 11:20 39.91689 23.46362 18783 ft 344 kts 328°
2026-05-05 11:20 39.93681 23.44634 18335 ft 344 kts 328°
2026-05-05 11:20 39.95671 23.42908 17781 ft 343 kts 328°
2026-05-05 11:20 39.97652 23.41190 17269 ft 341 kts 328°
2026-05-05 11:21 39.99621 23.39481 16752 ft 340 kts 328°
2026-05-05 11:21 40.01584 23.37774 16225 ft 339 kts 328°
2026-05-05 11:21 40.03545 23.36067 15691 ft 338 kts 328°
2026-05-05 11:21 40.05474 23.34384 15158 ft 338 kts 328°
2026-05-05 11:22 40.07430 23.32675 14618 ft 338 kts 328°
2026-05-05 11:22 40.09385 23.30968 14075 ft 339 kts 328°
2026-05-05 11:22 40.11346 23.29256 13490 ft 339 kts 328°
2026-05-05 11:22 40.13290 23.27555 13120 ft 328 kts 328°
2026-05-05 11:23 40.15125 23.25949 12987 ft 310 kts 329°
2026-05-05 11:23 40.16917 23.24470 12851 ft 299 kts 330°
2026-05-05 11:23 40.18684 23.23082 12603 ft 294 kts 332°
2026-05-05 11:23 40.20435 23.21737 12343 ft 290 kts 332°
2026-05-05 11:24 40.22254 23.20674 12079 ft 284 kts 352°
2026-05-05 11:24 40.24172 23.20929 11828 ft 279 kts 24°
2026-05-05 11:24 40.25657 23.22522 11569 ft 281 kts 53°
2026-05-05 11:24 40.26657 23.24740 11334 ft 284 kts 59°
2026-05-05 11:25 40.27701 23.26920 11070 ft 281 kts 52°
2026-05-05 11:25 40.28975 23.28854 10695 ft 281 kts 44°
2026-05-05 11:25 40.30440 23.30556 10278 ft 282 kts 38°
2026-05-05 11:25 40.32015 23.32106 9860 ft 283 kts 34°
2026-05-05 11:26 40.33622 23.33525 9425 ft 273 kts 32°
2026-05-05 11:26 40.35223 23.34797 9022 ft 265 kts 30°
2026-05-05 11:26 40.36820 23.35923 8639 ft 257 kts 26°
2026-05-05 11:26 40.38410 23.36903 8267 ft 249 kts 24°
2026-05-05 11:27 40.39970 23.37743 7912 ft 242 kts 20°
2026-05-05 11:27 40.41597 23.38074 7569 ft 238 kts 355°
2026-05-05 11:27 40.43145 23.37386 7196 ft 239 kts 328°
2026-05-05 11:27 40.44299 23.35788 6813 ft 248 kts 301°
2026-05-05 11:28 40.44843 23.33642 6419 ft 249 kts 287°
2026-05-05 11:28 40.45272 23.31417 5960 ft 251 kts 286°
2026-05-05 11:28 40.45693 23.29221 5579 ft 245 kts 285°
2026-05-05 11:28 40.46101 23.27087 5248 ft 237 kts 286°
2026-05-05 11:29 40.46493 23.25030 4922 ft 228 kts 287°
2026-05-05 11:29 40.46873 23.23041 4597 ft 221 kts 286°
2026-05-05 11:29 40.47236 23.21147 4302 ft 206 kts 287°
2026-05-05 11:29 40.47573 23.19395 4033 ft 190 kts 286°
2026-05-05 11:30 40.47884 23.17777 3716 ft 177 kts 287°
2026-05-05 11:30 40.48178 23.16251 3436 ft 170 kts 286°
2026-05-05 11:30 40.48459 23.14801 3133 ft 161 kts 286°
2026-05-05 11:30 40.48729 23.13397 2900 ft 157 kts 285°
2026-05-05 11:31 40.48990 23.12039 2622 ft 149 kts 286°
2026-05-05 11:31 40.49239 23.10737 2373 ft 146 kts 286°
2026-05-05 11:31 40.49483 23.09465 2127 ft 141 kts 285°
2026-05-05 11:31 40.49722 23.08225 1891 ft 139 kts 285°
2026-05-05 11:32 40.49959 23.06990 1658 ft 140 kts 285°
2026-05-05 11:32 40.50191 23.05751 1423 ft 139 kts 285°
2026-05-05 11:32 40.50432 23.04522 1136 ft 139 kts 286°
2026-05-05 11:32 40.50712 23.03307 938 ft 139 kts 288°
2026-05-05 11:33 40.51004 23.02093 715 ft 140 kts 286°
2026-05-05 11:33 40.51267 23.00867 474 ft 139 kts 284°
2026-05-05 11:33 40.51505 22.99625 284 ft 140 kts 283°
2026-05-05 11:33 40.51736 22.98385 69 ft 138 kts 283°
2026-05-05 11:34 40.51948 22.97228 30 ft 113 kts 285°
2026-05-05 11:34 40.52099 22.96448 31 ft 63 kts 284°
2026-05-05 11:34 40.52169 22.96072 30 ft 27 kts 283°
2026-05-05 11:34 40.52227 22.95934 30 ft 14 kts 354°
2026-05-05 11:35 40.52306 22.95950 29 ft 12 kts 12°
2026-05-05 11:35 40.52344 22.96035 29 ft 13 kts 98°
2026-05-05 11:35 40.52325 22.96158 29 ft 15 kts 102°
2026-05-05 11:35 40.52299 22.96300 29 ft 17 kts 104°
2026-05-05 11:36 40.52267 22.96463 29 ft 19 kts 104°
2026-05-05 11:36 40.52231 22.96645 29 ft 22 kts 105°
2026-05-05 11:36 40.52193 22.96828 29 ft 19 kts 104°
2026-05-05 11:36 40.52172 22.96978 27 ft 18 kts 88°
2026-05-05 11:37 40.52253 22.97095 28 ft 19 kts 20°
2026-05-05 11:37 40.52348 22.97150 28 ft 15 kts 33°
2026-05-05 11:37 40.52394 22.97275 28 ft 14 kts 75°
2026-05-05 11:37 40.52386 22.97371 28 ft 11 kts 129°
2026-05-05 11:38 40.52342 22.97436 28 ft 4 kts 125°
2026-05-05 11:38 40.52353 22.97468 28 ft 5 kts 51°
2026-05-05 11:38 40.52375 22.97500 28 ft 0 kts 45°